Weather History for KUIN - October, 2012

Change the Weather History Date:

Thursday, October 4, 2012

  Actual Average Record
Temperature  
Mean Temperature 59 °F 59 °F  
Max Temperature 71 °F 70 °F 92 °F (1938)
Min Temperature 47 °F 48 °F 29 °F (1935)
Degree Days  
Heating Degree Days 6 7  
Month to date heating degree days 19 28  
Since 1 July heating degree days 104 115  
Cooling Degree Days 0 1  
Month to date cooling degree days 0 5  
Year to date cooling degree days 1552 1081  
Growing Degree Days 8 (Base 50)    
Moisture  
Dew Point 49 °F    
Average Humidity 75    
Maximum Humidity 93    
Minimum Humidity 56    
Precipitation  
Precipitation 0.32 in 0.11 in 2.09 in (1991)
Month to date precipitation 0.32 0.42  
Year to date precipitation 18.88 29.47  
Sea Level Pressure  
Sea Level Pressure 30.13 in    
Wind  
Wind Speed 11 mph (West)    
Max Wind Speed 22 mph    
Max Gust Speed 25 mph    
Visibility 10 miles    
Events Rain , Thunderstorm    
T = Trace of Precipitation, MM = Missing Value Source: NWS Daily Summary

Daily Weather History Graph

Daily Weather History Graph

Search for Another Location

Airport or City:

Trip Planner

Search our weather history database for the weather conditions in past years. The results will help you decide how hot, cold, wet, or windy it might be!

Date:

Astronomy

Oct. 04, 2012 Rise Set
Actual Time 7:04 AM CDT 6:41 PM CDT
Civil Twilight 6:37 AM CDT 7:08 PM CDT
Nautical Twilight 6:06 AM CDT 7:39 PM CDT
Astronomical Twilight 5:34 AM CDT 8:11 PM CDT
Moon 9:17 PM CDT (10/4) 11:21 AM CDT (10/4)
Length of Visible Light 12h 30m
Length of Day
11h 36m
Waning Gibbous, 82% of the Moon is Illuminated
Oct 4
Waning Gibbous
Oct 8
Last Quarter
Oct 15
New
Oct 21
First Quarter
Oct 29
Full

Hourly Weather History & Observations

Time (CDT) Temp. Windchill Dew Point Humidity Pressure Visibility Wind Dir Wind Speed Gust Speed Precip Events Conditions
12:54 AM 59.0 °F - 53.1 °F 81% 30.03 in 10.0 mi South 5.8 mph - N/A   Clear
1:54 AM 57.0 °F - 53.1 °F 87% 30.04 in 10.0 mi South 4.6 mph - N/A   Clear
2:54 AM 57.9 °F - 53.1 °F 84% 30.04 in 10.0 mi South 6.9 mph - N/A   Clear
3:54 AM 57.9 °F - 53.1 °F 84% 30.04 in 10.0 mi South 8.1 mph - N/A   Clear
4:54 AM 55.9 °F - 53.1 °F 90% 30.04 in 10.0 mi South 8.1 mph - N/A   Clear
5:54 AM 55.9 °F - 52.0 °F 87% 30.05 in 10.0 mi South 8.1 mph - N/A   Clear
6:54 AM 57.0 °F - 53.1 °F 87% 30.06 in 10.0 mi South 9.2 mph - N/A   Scattered Clouds
7:54 AM 59.0 °F - 55.0 °F 87% 30.06 in 10.0 mi SSW 10.4 mph - N/A   Mostly Cloudy
8:54 AM 63.0 °F - 55.9 °F 78% 30.07 in 10.0 mi SW 12.7 mph - N/A   Clear
9:54 AM 68.0 °F - 55.9 °F 65% 30.06 in 10.0 mi SW 15.0 mph 21.9 mph N/A   Mostly Cloudy
10:54 AM 69.1 °F - 55.9 °F 63% 30.07 in 10.0 mi WSW 13.8 mph - N/A   Clear
11:54 AM 70.0 °F - 55.9 °F 61% 30.08 in 10.0 mi West 12.7 mph - N/A   Mostly Cloudy
12:54 PM 70.0 °F - 55.9 °F 61% 30.10 in 10.0 mi West 15.0 mph 19.6 mph N/A   Scattered Clouds
1:54 PM 70.0 °F - 53.1 °F 55% 30.11 in 2.5 mi WNW 18.4 mph - N/A   Haze
2:07 PM 66.2 °F - 48.2 °F 52% 30.11 in 9.0 mi NW 13.8 mph - N/A   Scattered Clouds
2:54 PM 63.0 °F - 46.0 °F 54% 30.12 in 10.0 mi NW 13.8 mph - N/A   Clear
3:54 PM 59.0 °F - 45.0 °F 60% 30.15 in 10.0 mi NW 15.0 mph 23.0 mph N/A   Mostly Cloudy
4:54 PM 53.1 °F - 44.1 °F 71% 30.17 in 10.0 mi NNW 17.3 mph 23.0 mph N/A   Mostly Cloudy
5:47 PM 50.0 °F - 42.8 °F 76% 30.20 in 10.0 mi NW 18.4 mph - N/A   Overcast
5:54 PM 50.0 °F - 43.0 °F 77% 30.20 in 10.0 mi NW 19.6 mph 25.3 mph N/A   Overcast
6:07 PM 50.0 °F - 42.8 °F 76% 30.19 in 10.0 mi NW 11.5 mph - N/A   Overcast
6:54 PM 46.9 °F - 44.1 °F 90% 30.19 in 9.0 mi NW 10.4 mph - 0.02 in Rain Light Rain
7:14 PM 46.4 °F 41.9 °F 44.6 °F 93% 30.19 in 10.0 mi NNW 9.2 mph - 0.00 in Rain Light Rain
7:41 PM 46.4 °F 41.9 °F 44.6 °F 93% 30.21 in 4.0 mi NW 9.2 mph - 0.07 in Rain , Thunderstorm Rain
7:54 PM 46.9 °F - 44.1 °F 90% 30.21 in 10.0 mi NW 6.9 mph - 0.09 in Rain , Thunderstorm Light Rain
8:07 PM 46.4 °F 43.5 °F 44.6 °F 93% 30.20 in 10.0 mi NW 5.8 mph - 0.00 in   Overcast
8:54 PM 46.9 °F - 44.1 °F 90% 30.19 in 10.0 mi NW 4.6 mph - 0.00 in   Overcast
9:54 PM 46.9 °F - 44.1 °F 90% 30.20 in 10.0 mi WNW 4.6 mph - N/A   Overcast
10:54 PM 48.0 °F - 45.0 °F 89% 30.22 in 9.0 mi WNW 5.8 mph - 0.00 in Rain , Thunderstorm Light Thunderstorms and Rain
11:37 PM 48.2 °F - 44.6 °F 87% 30.22 in 10.0 mi West 8.1 mph - 0.10 in   Overcast
11:47 PM 48.2 °F - 44.6 °F 87% 30.21 in 10.0 mi West 4.6 mph - 0.10 in Rain , Thunderstorm Light Rain
11:54 PM 48.0 °F - 45.0 °F 89% 30.23 in 10.0 mi West 9.2 mph - 0.10 in Rain , Thunderstorm Light Rain